| time (UTC) | temp F | wind direction | speed knots | gust knots | rain 1hr in | rain 24hr in | rain mn in | humidity % | barometer mb |
| 20260507095655 | 42 | 197 | 1.7 | 1.7 | 0.00 | 0.00 | 0.00 | 97 | 1007.9 |
| 20260507095151 | 42 | 192 | 0.9 | 0.9 | 0.00 | 0.00 | 0.00 | 98 | 1007.8 |
| 20260507094648 | 42 | 193 | 0.9 | 1.7 | 0.00 | 0.00 | 0.00 | 98 | 1007.5 |
| 20260507094144 | 42 | 193 | 1.7 | 1.7 | 0.00 | 0.00 | 0.00 | 98 | 1007.7 |
| 20260507093642 | 42 | 193 | 0.9 | 0.9 | 0.00 | 0.00 | 0.00 | 98 | 1007.6 |
| 20260507093141 | 42 | 193 | 0.9 | 0.9 | 0.00 | 0.00 | 0.00 | 98 | 1007.3 |
| 20260507092637 | 42 | 193 | 0.9 | 0.9 | 0.00 | 0.00 | 0.00 | 98 | 1007.2 |
| 20260507092134 | 42 | 193 | 0.9 | 0.9 | 0.00 | 0.00 | 0.00 | 98 | 1007.2 |
| 20260507091630 | 42 | 188 | 0.9 | 0.9 | 0.00 | 0.00 | 0.00 | 98 | 1007.4 |
| 20260507091126 | 42 | 190 | 1.7 | 2.6 | 0.00 | 0.00 | 0.00 | 98 | 1007.4 |
| 20260507090622 | 42 | 182 | 0.9 | 0.9 | 0.00 | 0.00 | 0.00 | 97 | 1007.2 |
| 20260507090120 | 42 | 182 | 0.0 | 0.9 | 0.00 | 0.00 | 0.00 | 97 | 1007.5 |
| 20260507085616 | 43 | 186 | 1.7 | 1.7 | 0.00 | 0.00 | 0.00 | 97 | 1007.5 |
| 20260507085113 | 43 | 172 | 0.9 | 0.9 | 0.00 | 0.00 | 0.00 | 97 | 1007.3 |
| 20260507084610 | 43 | 177 | 0.9 | 0.9 | 0.00 | 0.00 | 0.00 | 96 | 1007.3 |
| 20260507084107 | 43 | 192 | 0.9 | 0.9 | 0.00 | 0.00 | 0.00 | 96 | 1007.3 |
| 20260507083603 | 43 | 192 | 0.9 | 0.9 | 0.00 | 0.00 | 0.00 | 96 | 1007.6 |
| 20260507083101 | 44 | 214 | 1.7 | 1.7 | 0.00 | 0.00 | 0.00 | 95 | 1007.5 |
| 20260507082556 | 44 | 197 | 0.9 | 1.7 | 0.00 | 0.00 | 0.00 | 95 | 1007.7 |
| 20260507082053 | 44 | 179 | 0.9 | 0.9 | 0.00 | 0.00 | 0.00 | 95 | 1007.6 |
| 20260507081549 | 44 | 150 | 0.9 | 0.9 | 0.00 | 0.00 | 0.00 | 95 | 1007.7 |
| 20260507081046 | 44 | 168 | 0.9 | 0.9 | 0.00 | 0.00 | 0.00 | 95 | 1008.2 |
| 20260507080541 | 44 | 123 | 0.9 | 1.7 | 0.00 | 0.00 | 0.00 | 95 | 1008.1 |
| 20260507080033 | 44 | 129 | 3.5 | 3.5 | 0.00 | 0.00 | 0.00 | 95 | 1008.0 |
| 20260507075528 | 45 | 164 | 0.9 | 0.9 | 0.00 | 0.00 | 0.00 | 95 | 1008.2 |
| 20260507075024 | 45 | 200 | 0.9 | 1.7 | 0.00 | 0.00 | 0.00 | 95 | 1008.0 |
| 20260507074521 | 45 | 205 | 0.9 | 1.7 | 0.00 | 0.00 | 0.00 | 95 | 1007.9 |
| 20260507074020 | 45 | 332 | 3.5 | 5.2 | 0.00 | 0.00 | 0.00 | 95 | 1008.0 |
| 20260507073516 | 45 | 173 | 0.9 | 0.9 | 0.00 | 0.00 | 0.00 | 96 | 1008.0 |
| 20260507073012 | 45 | 205 | 0.0 | 0.0 | 0.00 | 0.00 | 0.00 | 96 | 1008.2 |
| 20260507072510 | 45 | 205 | 0.9 | 0.9 | 0.00 | 0.00 | 0.00 | 95 | 1008.1 |
| 20260507072007 | 44 | 206 | 0.9 | 0.9 | 0.00 | 0.00 | 0.00 | 95 | 1007.9 |
| 20260507071504 | 44 | 203 | 0.9 | 0.9 | 0.00 | 0.00 | 0.00 | 95 | 1008.2 |
| 20260507071001 | 45 | 215 | 1.7 | 1.7 | 0.00 | 0.00 | 0.00 | 96 | 1008.1 |
| 20260507070458 | 44 | 215 | 0.9 | 0.9 | 0.00 | 0.00 | 0.00 | 95 | 1008.2 |
| 20260507065954 | 44 | 216 | 1.7 | 2.6 | 0.00 | 0.00 | 0.00 | 95 | 1008.0 |
| 20260507065451 | 44 | 214 | 0.9 | 0.9 | 0.00 | 0.00 | 0.00 | 96 | 1008.0 |
| 20260507064948 | 44 | 214 | 0.9 | 0.9 | 0.00 | 0.00 | 0.00 | 96 | 1007.9 |
| 20260507064447 | 45 | 214 | 1.7 | 1.7 | 0.00 | 0.00 | 0.00 | 96 | 1008.4 |
| 20260507063944 | 44 | 205 | 0.0 | 0.0 | 0.00 | 0.00 | 0.00 | 97 | 1007.7 |
| 20260507063441 | 45 | 204 | 0.9 | 0.9 | 0.00 | 0.00 | 0.00 | 97 | 1007.9 |
| 20260507062938 | 45 | 204 | 1.7 | 1.7 | 0.00 | 0.00 | 0.00 | 97 | 1007.6 |
| 20260507062435 | 45 | 184 | 1.7 | 1.7 | 0.00 | 0.00 | 0.00 | 97 | 1007.6 |
| 20260507061932 | 45 | 194 | 0.9 | 0.9 | 0.00 | 0.00 | 0.00 | 97 | 1007.7 |
| 20260507061430 | 45 | 200 | 1.7 | 1.7 | 0.00 | 0.00 | 0.00 | 97 | 1007.7 |
| 20260507060928 | 45 | 194 | 0.9 | 0.9 | 0.00 | 0.00 | 0.00 | 97 | 1007.8 |
| 20260507060425 | 45 | 194 | 0.9 | 0.9 | 0.00 | 0.00 | 0.00 | 97 | 1007.4 |
| 20260507055921 | 45 | 172 | 0.9 | 0.9 | 0.00 | 0.00 | 0.00 | 96 | 1007.8 |
| 20260507055416 | 45 | 193 | 1.7 | 1.7 | 0.00 | 0.00 | 0.00 | 96 | 1007.6 |
| 20260507054908 | 45 | 190 | 0.9 | 0.9 | 0.00 | 0.00 | 0.00 | 96 | 1007.5 |
| 20260507054404 | 45 | 160 | 0.9 | 0.9 | 0.00 | 0.00 | 0.00 | 95 | 1007.5 |
| 20260507053901 | 45 | 201 | 1.7 | 1.7 | 0.00 | 0.00 | 0.00 | 96 | 1006.8 |
| 20260507053359 | 45 | 176 | 0.9 | 0.9 | 0.00 | 0.00 | 0.00 | 96 | 1007.4 |
| 20260507052858 | 45 | 198 | 0.9 | 1.7 | 0.00 | 0.00 | 0.00 | 96 | 1007.0 |
| 20260507052354 | 45 | 156 | 0.9 | 0.9 | 0.00 | 0.00 | 0.00 | 96 | 1007.0 |
| 20260507051852 | 45 | 170 | 0.9 | 1.7 | 0.00 | 0.00 | 0.00 | 96 | 1007.0 |
| 20260507051349 | 45 | 178 | 0.9 | 1.7 | 0.00 | 0.00 | 0.00 | 95 | 1007.5 |
| 20260507050846 | 46 | 180 | 0.0 | 0.9 | 0.00 | 0.00 | 0.00 | 95 | 1007.2 |
| 20260507050342 | 46 | 144 | 0.9 | 0.9 | 0.00 | 0.00 | 0.00 | 94 | 1007.2 |
| 20260507045839 | 46 | 198 | 0.0 | 0.0 | 0.00 | 0.00 | 0.00 | 94 | 1007.8 |
| 20260507045336 | 46 | 213 | 0.0 | 0.0 | 0.00 | 0.00 | 0.00 | 94 | 1007.6 |
| 20260507044833 | 46 | 209 | 0.0 | 0.9 | 0.00 | 0.00 | 0.00 | 93 | 1007.9 |
| 20260507044329 | 46 | 189 | 0.9 | 0.9 | 0.00 | 0.00 | 0.00 | 93 | 1007.6 |
| 20260507043825 | 46 | 206 | 1.7 | 1.7 | 0.00 | 0.00 | 0.00 | 93 | 1007.9 |
| 20260507043322 | 46 | 199 | 0.9 | 0.9 | 0.00 | 0.00 | 0.00 | 94 | 1007.6 |
| 20260507042818 | 46 | 198 | 0.0 | 0.0 | 0.00 | 0.00 | 0.00 | 93 | 1007.7 |
| 20260507042314 | 46 | 199 | 0.0 | 0.0 | 0.00 | 0.00 | 0.00 | 93 | 1007.8 |
| 20260507041811 | 46 | 199 | 1.7 | 1.7 | 0.00 | 0.00 | 0.00 | 93 | 1008.0 |
| 20260507041308 | 46 | 173 | 0.0 | 0.0 | 0.00 | 0.00 | 0.00 | 93 | 1007.9 |
| 20260507040805 | 46 | 239 | 2.6 | 2.6 | 0.00 | 0.00 | 0.00 | 92 | 1007.9 |
| 20260507040301 | 46 | 218 | 0.9 | 1.7 | 0.00 | 0.00 | 0.00 | 93 | 1008.0 |
| 20260507035757 | 46 | 198 | 0.0 | 0.0 | 0.00 | 0.23 | 0.23 | 93 | 1007.9 |
| 20260507035252 | 46 | 193 | 1.7 | 2.6 | 0.00 | 0.23 | 0.23 | 92 | 1007.7 |
| 20260507034750 | 46 | 196 | 1.7 | 1.7 | 0.00 | 0.23 | 0.23 | 92 | 1007.5 |
| 20260507034247 | 46 | 194 | 0.9 | 0.9 | 0.00 | 0.23 | 0.23 | 92 | 1007.0 |
| 20260507033746 | 46 | 165 | 0.9 | 0.9 | 0.00 | 0.23 | 0.23 | 92 | 1007.7 |
| 20260507033242 | 46 | 190 | 1.7 | 1.7 | 0.00 | 0.23 | 0.23 | 93 | 1007.3 |
| 20260507032740 | 46 | 210 | 2.6 | 2.6 | 0.00 | 0.23 | 0.23 | 92 | 1007.2 |
| 20260507032236 | 47 | 195 | 0.9 | 0.9 | 0.00 | 0.23 | 0.23 | 92 | 1007.3 |
| 20260507031732 | 47 | 311 | 1.7 | 2.6 | 0.00 | 0.23 | 0.23 | 92 | 1007.4 |
| 20260507031229 | 47 | 188 | 1.7 | 2.6 | 0.00 | 0.23 | 0.23 | 92 | 1007.5 |
| 20260507030726 | 47 | 193 | 0.0 | 0.0 | 0.00 | 0.23 | 0.23 | 93 | 1007.5 |
| 20260507030224 | 47 | 178 | 0.9 | 0.9 | 0.00 | 0.23 | 0.23 | 94 | 1007.2 |
| 20260507025720 | 47 | 186 | 1.7 | 1.7 | 0.00 | 0.23 | 0.23 | 94 | 1007.2 |
| 20260507025217 | 47 | 196 | 0.9 | 0.9 | 0.00 | 0.23 | 0.23 | 95 | 1007.2 |
| 20260507024716 | 47 | 178 | 0.9 | 0.9 | 0.00 | 0.23 | 0.23 | 94 | 1007.7 |
| 20260507024213 | 47 | 210 | 1.7 | 1.7 | 0.00 | 0.23 | 0.23 | 94 | 1007.6 |
| 20260507023708 | 47 | 217 | 2.6 | 3.5 | 0.00 | 0.23 | 0.23 | 95 | 1007.5 |
| 20260507023205 | 48 | 186 | 1.7 | 1.7 | 0.00 | 0.23 | 0.23 | 95 | 1007.5 |
| 20260507022702 | 48 | 235 | 1.7 | 2.6 | 0.00 | 0.23 | 0.23 | 95 | 1007.8 |
| 20260507022158 | 48 | 236 | 2.6 | 2.6 | 0.00 | 0.23 | 0.23 | 94 | 1007.7 |
| 20260507021655 | 48 | 205 | 1.7 | 1.7 | 0.00 | 0.23 | 0.23 | 94 | 1007.5 |
| 20260507021150 | 48 | 203 | 0.9 | 0.9 | 0.00 | 0.23 | 0.23 | 95 | 1007.7 |
| 20260507020649 | 48 | 203 | 0.9 | 1.7 | 0.00 | 0.23 | 0.23 | 95 | 1008.2 |
| 20260507020144 | 48 | 130 | 1.7 | 2.6 | 0.00 | 0.23 | 0.23 | 95 | 1008.1 |
| 20260507015643 | 48 | 198 | 0.9 | 1.7 | 0.00 | 0.23 | 0.23 | 95 | 1008.1 |
| 20260507015140 | 48 | 219 | 1.7 | 1.7 | 0.00 | 0.23 | 0.23 | 95 | 1008.0 |
| 20260507014636 | 48 | 199 | 1.7 | 1.7 | 0.00 | 0.23 | 0.23 | 95 | 1007.9 |
| 20260507014132 | 48 | 215 | 1.7 | 2.6 | 0.00 | 0.23 | 0.23 | 95 | 1007.6 |
| 20260507013629 | 48 | 224 | 0.9 | 0.9 | 0.00 | 0.23 | 0.23 | 95 | 1007.8 |
| 20260507013126 | 48 | 210 | 0.9 | 0.9 | 0.00 | 0.23 | 0.23 | 94 | 1007.7 |
| 20260507012624 | 48 | 128 | 0.9 | 1.7 | 0.00 | 0.23 | 0.23 | 94 | 1007.6 |
| 20260507012119 | 48 | 225 | 0.9 | 1.7 | 0.00 | 0.23 | 0.23 | 94 | 1007.6 |
| 20260507011618 | 48 | 129 | 3.5 | 6.1 | 0.00 | 0.23 | 0.23 | 94 | 1007.7 |
| 20260507011113 | 49 | 222 | 0.0 | 0.0 | 0.00 | 0.23 | 0.23 | 94 | 1007.8 |
| 20260507010608 | 49 | 235 | 2.6 | 2.6 | 0.00 | 0.23 | 0.23 | 94 | 1007.8 |
| 20260507010104 | 48 | 313 | 1.7 | 2.6 | 0.00 | 0.23 | 0.23 | 93 | 1007.5 |
| 20260507005602 | 49 | 214 | 2.6 | 2.6 | 0.00 | 0.23 | 0.23 | 94 | 1007.3 |
| 20260507005058 | 49 | 210 | 1.7 | 3.5 | 0.00 | 0.23 | 0.23 | 93 | 1007.0 |
| 20260507004555 | 49 | 217 | 0.0 | 0.9 | 0.00 | 0.23 | 0.23 | 95 | 1007.2 |
| 20260507004053 | 49 | 246 | 5.2 | 6.1 | 0.00 | 0.23 | 0.23 | 94 | 1007.4 |
| 20260507003548 | 49 | 43 | 1.7 | 1.7 | 0.00 | 0.23 | 0.23 | 95 | 1007.4 |
| 20260507003043 | 50 | 213 | 1.7 | 2.6 | 0.00 | 0.23 | 0.23 | 95 | 1007.3 |
| 20260507002540 | 50 | 187 | 0.9 | 1.7 | 0.00 | 0.23 | 0.23 | 95 | 1007.0 |
| 20260507002036 | 50 | 218 | 3.5 | 3.5 | 0.00 | 0.23 | 0.23 | 94 | 1006.7 |
| 20260507001533 | 50 | 194 | 0.9 | 1.7 | 0.00 | 0.23 | 0.23 | 95 | 1006.6 |
| 20260507001031 | 50 | 184 | 0.0 | 0.9 | 0.00 | 0.23 | 0.23 | 94 | 1006.6 |
| 20260507000526 | 50 | 164 | 0.0 | 0.9 | 0.00 | 0.23 | 0.23 | 94 | 1006.6 |
| 20260507000016 | 50 | 202 | 0.9 | 1.7 | 0.00 | 0.23 | 0.23 | 93 | 1006.6 |
| 20260506235514 | 50 | 199 | 0.9 | 0.9 | 0.00 | 0.23 | 0.23 | 93 | 1006.8 |
| 20260506235010 | 50 | 194 | 3.5 | 3.5 | 0.00 | 0.23 | 0.23 | 93 | 1007.0 |
| 20260506234507 | 51 | 234 | 1.7 | 2.6 | 0.00 | 0.23 | 0.23 | 93 | 1006.5 |
| 20260506233959 | 51 | 238 | 0.0 | 0.9 | 0.00 | 0.23 | 0.23 | 92 | 1006.5 |
| 20260506233455 | 51 | 210 | 0.9 | 1.7 | 0.00 | 0.23 | 0.23 | 91 | 1006.4 |
| 20260506232951 | 51 | 201 | 2.6 | 2.6 | 0.00 | 0.23 | 0.23 | 92 | 1006.0 |
| 20260506232448 | 51 | 194 | 3.5 | 3.5 | 0.00 | 0.23 | 0.23 | 93 | 1006.0 |
| 20260506231944 | 51 | 30 | 1.7 | 1.7 | 0.00 | 0.23 | 0.23 | 93 | 1005.8 |
| 20260506231441 | 52 | 177 | 0.0 | 0.9 | 0.00 | 0.23 | 0.23 | 95 | 1005.9 |
| 20260506230938 | 53 | 114 | 1.7 | 2.6 | 0.00 | 0.23 | 0.23 | 96 | 1005.9 |
| 20260506230435 | 54 | 158 | 0.9 | 1.7 | 0.00 | 0.23 | 0.23 | 97 | 1005.4 |
| 20260506225931 | 54 | 170 | 0.0 | 0.9 | 0.00 | 0.23 | 0.23 | 96 | 1005.5 |
| 20260506225429 | 55 | 183 | 0.9 | 1.7 | 0.00 | 0.23 | 0.23 | 96 | 1005.4 |
| 20260506224926 | 55 | 198 | 0.9 | 1.7 | 0.00 | 0.23 | 0.23 | 94 | 1004.8 |
| 20260506224423 | 55 | 197 | 0.9 | 0.9 | 0.00 | 0.23 | 0.23 | 94 | 1005.0 |
| 20260506223919 | 56 | 155 | 0.9 | 0.9 | 0.00 | 0.23 | 0.23 | 95 | 1004.9 |
| 20260506223415 | 58 | 191 | 1.7 | 1.7 | 0.00 | 0.23 | 0.23 | 97 | 1004.7 |
| 20260506222912 | 59 | 129 | 1.7 | 2.6 | 0.00 | 0.23 | 0.23 | 98 | 1004.4 |
| 20260506222409 | 60 | 183 | 0.9 | 1.7 | 0.00 | 0.23 | 0.23 | 99 | 1004.2 |
| 20260506221906 | 60 | 203 | 0.9 | 1.7 | 0.00 | 0.23 | 0.23 | 99 | 1004.3 |
| 20260506221403 | 60 | 202 | 0.0 | 0.0 | 0.00 | 0.23 | 0.23 | 98 | 1003.8 |
| 20260506220900 | 61 | 164 | 0.0 | 0.9 | 0.00 | 0.23 | 0.23 | 98 | 1003.6 |
| 20260506220356 | 61 | 165 | 0.9 | 0.9 | 0.00 | 0.23 | 0.23 | 98 | 1003.7 |
| 20260506215853 | 61 | 165 | 0.0 | 0.0 | 0.00 | 0.23 | 0.23 | 97 | 1003.8 |
| 20260506215348 | 61 | 164 | 0.0 | 0.0 | 0.00 | 0.23 | 0.23 | 97 | 1003.6 |
| 20260506214844 | 61 | 159 | 0.9 | 1.7 | 0.00 | 0.23 | 0.23 | 97 | 1003.5 |
| 20260506214341 | 62 | 163 | 0.9 | 1.7 | 0.00 | 0.23 | 0.23 | 96 | 1003.5 |
| 20260506213839 | 61 | 158 | 0.0 | 0.0 | 0.00 | 0.23 | 0.23 | 96 | 1003.4 |
| 20260506213336 | 61 | 155 | 0.9 | 0.9 | 0.00 | 0.23 | 0.23 | 97 | 1003.7 |
| 20260506212834 | 61 | 155 | 0.0 | 0.0 | 0.00 | 0.23 | 0.23 | 99 | 1003.4 |
| 20260506212329 | 60 | 135 | 0.0 | 0.9 | 0.00 | 0.23 | 0.23 | 99 | 1003.6 |
| 20260506211824 | 60 | 165 | 0.9 | 1.7 | 0.00 | 0.23 | 0.23 | 99 | 1003.5 |
| 20260506211321 | 60 | 156 | 0.9 | 0.9 | 0.00 | 0.23 | 0.23 | 99 | 1003.7 |
| 20260506210818 | 60 | 134 | 0.9 | 0.9 | 0.00 | 0.23 | 0.23 | 99 | 1003.6 |
| 20260506210315 | 60 | 338 | 0.0 | 0.9 | 0.00 | 0.23 | 0.23 | 99 | 1003.4 |
| 20260506205812 | 61 | 210 | 0.9 | 1.7 | 0.00 | 0.23 | 0.23 | 98 | 1003.2 |
| 20260506205308 | 61 | 210 | 0.9 | 0.9 | 0.00 | 0.23 | 0.23 | 97 | 1003.4 |
| 20260506204804 | 61 | 210 | 1.7 | 1.7 | 0.00 | 0.23 | 0.23 | 97 | 1003.3 |
| 20260506204302 | 61 | 225 | 2.6 | 3.5 | 0.00 | 0.23 | 0.23 | 97 | 1003.4 |
| 20260506203759 | 62 | 205 | 1.7 | 2.6 | 0.00 | 0.23 | 0.23 | 97 | 1003.4 |
| 20260506203251 | 61 | 204 | 1.7 | 1.7 | 0.00 | 0.23 | 0.23 | 96 | 1003.2 |
| 20260506202748 | 61 | 207 | 1.7 | 1.7 | 0.00 | 0.23 | 0.23 | 98 | 1003.4 |
| 20260506202245 | 60 | 215 | 1.7 | 1.7 | 0.00 | 0.23 | 0.23 | 97 | 1003.3 |
| 20260506201742 | 60 | 135 | 1.7 | 1.7 | 0.00 | 0.23 | 0.23 | 99 | 1003.5 |
| 20260506201238 | 60 | 215 | 0.9 | 1.7 | 0.00 | 0.23 | 0.23 | 99 | 1003.3 |
| 20260506200736 | 60 | 222 | 0.9 | 1.7 | 0.00 | 0.23 | 0.23 | 99 | 1003.7 |
| 20260506200232 | 60 | 223 | 1.7 | 1.7 | 0.00 | 0.23 | 0.23 | 99 | 1003.7 |
| 20260506195728 | 60 | 211 | 0.9 | 0.9 | 0.00 | 0.23 | 0.23 | 99 | 1003.7 |
| 20260506195224 | 60 | 211 | 0.9 | 1.7 | 0.00 | 0.23 | 0.23 | 99 | 1003.5 |
| 20260506194721 | 59 | 208 | 2.6 | 2.6 | 0.00 | 0.23 | 0.23 | 99 | 1003.8 |
| 20260506194218 | 59 | 253 | 1.7 | 2.6 | 0.00 | 0.23 | 0.23 | 99 | 1003.8 |
| 20260506193716 | 59 | 145 | 0.9 | 0.9 | 0.00 | 0.23 | 0.23 | 99 | 1003.7 |
| 20260506193213 | 59 | 198 | 1.7 | 2.6 | 0.00 | 0.23 | 0.23 | 99 | 1003.8 |
| 20260506192709 | 59 | 199 | 1.7 | 1.7 | 0.00 | 0.23 | 0.23 | 99 | 1004.3 |
| 20260506192205 | 60 | 220 | 0.0 | 0.9 | 0.00 | 0.23 | 0.23 | 99 | 1003.8 |
| 20260506191658 | 60 | 160 | 0.9 | 0.9 | 0.00 | 0.23 | 0.23 | 99 | 1003.9 |
| 20260506191153 | 60 | 161 | 0.9 | 0.9 | 0.00 | 0.23 | 0.23 | 99 | 1003.9 |
| 20260506190651 | 60 | 227 | 2.6 | 2.6 | 0.00 | 0.23 | 0.23 | 99 | 1004.3 |
| 20260506190147 | 60 | 254 | 1.7 | 2.6 | 0.00 | 0.23 | 0.23 | 99 | 1004.0 |
| 20260506185645 | 60 | 225 | 1.7 | 1.7 | 0.00 | 0.23 | 0.23 | 99 | 1004.0 |
| 20260506185140 | 60 | 200 | 0.0 | 0.0 | 0.00 | 0.23 | 0.23 | 99 | 1004.3 |
| 20260506184639 | 60 | 218 | 0.9 | 0.9 | 0.00 | 0.23 | 0.23 | 99 | 1004.3 |
| 20260506184136 | 60 | 219 | 1.7 | 1.7 | 0.00 | 0.23 | 0.23 | 99 | 1004.4 |
| 20260506183632 | 59 | 221 | 0.9 | 0.9 | 0.00 | 0.23 | 0.23 | 99 | 1003.9 |
| 20260506183128 | 60 | 166 | 0.0 | 0.9 | 0.00 | 0.23 | 0.23 | 99 | 1004.4 |
| 20260506182626 | 59 | 219 | 0.9 | 1.7 | 0.07 | 0.23 | 0.23 | 99 | 1004.4 |
| 20260506182122 | 59 | 222 | 2.6 | 2.6 | 0.07 | 0.23 | 0.23 | 99 | 1004.4 |
| 20260506181620 | 59 | 207 | 1.7 | 2.6 | 0.00 | 0.22 | 0.22 | 99 | 1004.4 |
| 20260506181117 | 59 | 213 | 1.7 | 1.7 | 0.00 | 0.22 | 0.22 | 99 | 1004.5 |
| 20260506180614 | 59 | 197 | 1.7 | 1.7 | 0.00 | 0.22 | 0.22 | 99 | 1004.5 |
| 20260506180110 | 59 | 338 | 2.6 | 3.5 | 0.00 | 0.22 | 0.22 | 99 | 1004.7 |
| 20260506175606 | 59 | 237 | 1.7 | 2.6 | 0.00 | 0.22 | 0.22 | 99 | 1004.6 |
| 20260506175057 | 59 | 218 | 1.7 | 1.7 | 0.00 | 0.22 | 0.22 | 99 | 1004.9 |
| 20260506174556 | 59 | 212 | 2.6 | 3.5 | 0.00 | 0.22 | 0.22 | 99 | 1004.6 |
| 20260506174052 | 58 | 214 | 1.7 | 2.6 | 0.00 | 0.22 | 0.22 | 99 | 1004.6 |
| 20260506173550 | 58 | 236 | 3.5 | 3.5 | 0.00 | 0.22 | 0.22 | 99 | 1004.8 |
| 20260506173046 | 58 | 229 | 2.6 | 2.6 | 0.00 | 0.22 | 0.22 | 99 | 1004.7 |
| 20260506172544 | 58 | 230 | 2.6 | 3.5 | 0.00 | 0.22 | 0.22 | 99 | 1004.9 |
| 20260506172039 | 58 | 230 | 2.6 | 2.6 | 0.05 | 0.22 | 0.22 | 99 | 1004.6 |
| 20260506171536 | 58 | 307 | 3.5 | 5.2 | 0.05 | 0.22 | 0.22 | 99 | 1004.7 |
| 20260506171034 | 58 | 255 | 2.6 | 3.5 | 0.00 | 0.21 | 0.21 | 99 | 1004.7 |
| 20260506170531 | 59 | 190 | 1.7 | 2.6 | 0.07 | 0.21 | 0.21 | 99 | 1004.7 |
| 20260506170023 | 59 | 195 | 0.9 | 0.9 | 0.14 | 0.21 | 0.21 | 99 | 1004.8 |
| 20260506165521 | 59 | 232 | 2.6 | 3.5 | 0.07 | 0.20 | 0.20 | 99 | 1004.8 |
| 20260506165012 | 59 | 331 | 1.7 | 2.6 | 0.00 | 0.19 | 0.19 | 99 | 1004.6 |
| 20260506164509 | 59 | 195 | 2.6 | 2.6 | 0.00 | 0.19 | 0.19 | 99 | 1004.8 |
| 20260506164007 | 59 | 189 | 0.9 | 1.7 | 0.05 | 0.19 | 0.19 | 99 | 1004.8 |
| 20260506163502 | 59 | 205 | 0.0 | 0.0 | 0.05 | 0.19 | 0.19 | 99 | 1004.8 |
| 20260506162956 | 59 | 188 | 0.9 | 0.9 | 0.00 | 0.18 | 0.18 | 99 | 1004.8 |
| 20260506162454 | 59 | 184 | 1.7 | 2.6 | 0.07 | 0.18 | 0.18 | 99 | 1004.7 |
| 20260506161945 | 59 | 175 | 2.6 | 3.5 | 0.07 | 0.18 | 0.18 | 99 | 1004.8 |
| 20260506161443 | 59 | 197 | 0.9 | 1.7 | 0.05 | 0.17 | 0.17 | 99 | 1005.1 |
| 20260506160935 | 58 | 179 | 0.9 | 0.9 | 0.05 | 0.17 | 0.17 | 99 | 1005.1 |
| 20260506160432 | 58 | 232 | 3.5 | 5.2 | 0.07 | 0.16 | 0.16 | 99 | 1005.2 |
| 20260506155929 | 58 | 206 | 1.7 | 1.7 | 0.12 | 0.16 | 0.16 | 99 | 1005.4 |
| 20260506155426 | 58 | 181 | 0.9 | 0.9 | 0.12 | 0.15 | 0.15 | 99 | 1005.6 |
| 20260506153548 | 59 | 197 | 0.9 | 0.9 | 0.07 | 0.12 | 0.12 | 99 | 1005.5 |
| 20260506153046 | 59 | 156 | 0.9 | 0.9 | 0.00 | 0.11 | 0.11 | 99 | 1005.5 |
| 20260506152542 | 59 | 213 | 2.6 | 3.5 | 0.00 | 0.11 | 0.11 | 99 | 1005.5 |
| 20260506152041 | 59 | 201 | 1.7 | 2.6 | 0.05 | 0.11 | 0.11 | 99 | 1005.5 |
| 20260506151538 | 59 | 233 | 1.7 | 1.7 | 0.12 | 0.11 | 0.11 | 99 | 1005.5 |
| 20260506151035 | 59 | 263 | 3.5 | 3.5 | 0.07 | 0.10 | 0.10 | 99 | 1005.2 |
| 20260506150531 | 59 | 151 | 0.9 | 1.7 | 0.05 | 0.09 | 0.09 | 99 | 1005.6 |
| 20260506150029 | 59 | 274 | 4.3 | 7.0 | 0.05 | 0.09 | 0.09 | 99 | 1005.5 |
| 20260506145525 | 59 | 167 | 5.2 | 6.1 | 0.07 | 0.08 | 0.08 | 99 | 1005.6 |
| 20260506145023 | 59 | 201 | 0.9 | 1.7 | 0.14 | 0.08 | 0.08 | 99 | 1005.7 |
| 20260506144519 | 59 | 149 | 0.0 | 0.0 | 0.07 | 0.07 | 0.07 | 99 | 1005.7 |
| 20260506144017 | 59 | 159 | 0.0 | 0.9 | 0.00 | 0.06 | 0.06 | 99 | 1005.9 |
| 20260506143514 | 59 | 155 | 0.9 | 1.7 | 0.05 | 0.06 | 0.06 | 99 | 1005.9 |
| 20260506143013 | 59 | 155 | 0.9 | 1.7 | 0.12 | 0.06 | 0.06 | 99 | 1005.7 |
| 20260506142510 | 59 | 169 | 0.0 | 0.9 | 0.12 | 0.05 | 0.05 | 99 | 1006.0 |
| 20260506142008 | 59 | 201 | 0.9 | 0.9 | 0.05 | 0.04 | 0.04 | 98 | 1006.0 |
| 20260506141506 | 59 | 250 | 1.7 | 1.7 | 0.07 | 0.03 | 0.03 | 98 | 1006.0 |
| 20260506141004 | 59 | 270 | 1.7 | 2.6 | 0.07 | 0.03 | 0.03 | 98 | 1006.1 |
| 20260506140500 | 59 | 166 | 0.0 | 0.9 | 0.07 | 0.03 | 0.03 | 98 | 1006.0 |
| 20260506135957 | 59 | 166 | 0.9 | 1.7 | 0.05 | 0.02 | 0.02 | 97 | 1006.2 |
| 20260506135455 | 60 | 236 | 0.0 | 0.9 | 0.07 | 0.01 | 0.01 | 95 | 1006.1 |
| 20260506134950 | 60 | 232 | 1.7 | 1.7 | 0.07 | 0.01 | 0.01 | 94 | 1006.2 |
| 20260506134446 | 60 | 225 | 0.9 | 0.9 | 0.00 | 0.00 | 0.00 | 91 | 1006.2 |
| 20260506133943 | 61 | 220 | 0.9 | 0.9 | 0.00 | 0.00 | 0.00 | 90 | 1006.3 |
| 20260506133440 | 61 | 248 | 1.7 | 1.7 | 0.00 | 0.00 | 0.00 | 89 | 1006.5 |
| 20260506132937 | 61 | 256 | 3.5 | 3.5 | 0.00 | 0.00 | 0.00 | 88 | 1006.2 |
| 20260506132434 | 61 | 212 | 2.6 | 3.5 | 0.00 | 0.00 | 0.00 | 88 | 1006.1 |
| 20260506131932 | 61 | 271 | 1.7 | 5.2 | 0.00 | 0.00 | 0.00 | 88 | 1006.2 |
| 20260506131428 | 61 | 157 | 1.7 | 2.6 | 0.00 | 0.00 | 0.00 | 88 | 1006.1 |
| 20260506130925 | 61 | 185 | 0.9 | 1.7 | 0.00 | 0.00 | 0.00 | 88 | 1006.1 |
| 20260506130421 | 61 | 246 | 2.6 | 2.6 | 0.00 | 0.00 | 0.00 | 88 | 1005.9 |
| 20260506125920 | 61 | 233 | 1.7 | 1.7 | 0.00 | 0.00 | 0.00 | 87 | 1005.4 |
| 20260506125418 | 61 | 223 | 0.9 | 2.6 | 0.00 | 0.00 | 0.00 | 87 | 1005.6 |
| 20260506124916 | 61 | 212 | 0.9 | 1.7 | 0.00 | 0.00 | 0.00 | 86 | 1005.7 |
| 20260506124413 | 61 | 152 | 0.9 | 1.7 | 0.00 | 0.00 | 0.00 | 86 | 1005.6 |
| 20260506123911 | 62 | 208 | 1.7 | 1.7 | 0.00 | 0.00 | 0.00 | 85 | 1005.5 |
| 20260506123408 | 62 | 159 | 0.0 | 0.9 | 0.00 | 0.00 | 0.00 | 84 | 1005.5 |
| 20260506122905 | 62 | 150 | 0.9 | 1.7 | 0.00 | 0.00 | 0.00 | 84 | 1005.8 |
| 20260506122402 | 62 | 220 | 0.0 | 0.9 | 0.00 | 0.00 | 0.00 | 84 | 1005.9 |
| 20260506121901 | 62 | 201 | 3.5 | 3.5 | 0.00 | 0.00 | 0.00 | 83 | 1006.0 |
| 20260506121357 | 62 | 210 | 0.9 | 1.7 | 0.00 | 0.00 | 0.00 | 82 | 1006.0 |
| 20260506120854 | 62 | 224 | 0.9 | 0.9 | 0.00 | 0.00 | 0.00 | 82 | 1006.0 |
| 20260506120352 | 62 | 174 | 1.7 | 1.7 | 0.00 | 0.00 | 0.00 | 82 | 1006.1 |
| 20260506115849 | 62 | 249 | 3.5 | 3.5 | 0.00 | 0.00 | 0.00 | 81 | 1005.9 |
| 20260506115347 | 62 | 203 | 0.9 | 0.9 | 0.00 | 0.00 | 0.00 | 81 | 1006.0 |
| 20260506114845 | 62 | 196 | 1.7 | 1.7 | 0.00 | 0.00 | 0.00 | 81 | 1006.1 |
| 20260506114342 | 62 | 233 | 1.7 | 2.6 | 0.00 | 0.00 | 0.00 | 81 | 1006.0 |
| 20260506113841 | 62 | 200 | 0.9 | 1.7 | 0.00 | 0.00 | 0.00 | 81 | 1005.8 |
| 20260506113338 | 62 | 315 | 1.7 | 1.7 | 0.00 | 0.00 | 0.00 | 80 | 1005.8 |
| 20260506112834 | 62 | 207 | 4.3 | 6.1 | 0.00 | 0.00 | 0.00 | 80 | 1005.8 |
| 20260506112332 | 62 | 237 | 1.7 | 3.5 | 0.00 | 0.00 | 0.00 | 80 | 1005.9 |
| 20260506111829 | 62 | 177 | 3.5 | 5.2 | 0.00 | 0.00 | 0.00 | 79 | 1005.7 |
| 20260506111328 | 62 | 246 | 4.3 | 6.1 | 0.00 | 0.00 | 0.00 | 79 | 1005.8 |
| 20260506110824 | 62 | 242 | 1.7 | 1.7 | 0.00 | 0.00 | 0.00 | 78 | 1005.5 |
| 20260506110321 | 62 | 250 | 3.5 | 7.0 | 0.00 | 0.00 | 0.00 | 78 | 1005.8 |
| 20260506105818 | 62 | 205 | 1.7 | 1.7 | 0.00 | 0.00 | 0.00 | 79 | 1005.5 |
| 20260506105315 | 62 | 126 | 1.7 | 1.7 | 0.00 | 0.00 | 0.00 | 79 | 1005.5 |
| 20260506104812 | 62 | 66 | 0.9 | 0.9 | 0.00 | 0.00 | 0.00 | 78 | 1005.6 |
| 20260506104310 | 62 | 223 | 1.7 | 1.7 | 0.00 | 0.00 | 0.00 | 77 | 1005.4 |
| 20260506103808 | 62 | 231 | 2.6 | 3.5 | 0.00 | 0.00 | 0.00 | 78 | 1005.4 |
| 20260506103305 | 62 | 186 | 1.7 | 2.6 | 0.00 | 0.00 | 0.00 | 77 | 1005.6 |
| 20260506102802 | 62 | 250 | 5.2 | 7.0 | 0.00 | 0.00 | 0.00 | 77 | 1005.4 |
| 20260506102300 | 62 | 230 | 1.7 | 1.7 | 0.00 | 0.00 | 0.00 | 77 | 1005.8 |
| 20260506101757 | 62 | 235 | 4.3 | 7.0 | 0.00 | 0.00 | 0.00 | 76 | 1005.4 |
| 20260506101253 | 62 | 344 | 1.7 | 2.6 | 0.00 | 0.00 | 0.00 | 76 | 1005.8 |
| 20260506100751 | 62 | 215 | 0.9 | 0.9 | 0.00 | 0.00 | 0.00 | 76 | 1005.4 |
| 20260506100249 | 62 | 214 | 3.5 | 5.2 | 0.00 | 0.00 | 0.00 | 75 | 1005.5 |